Location: ????????
(55.0097°N, 38.5678°E)
Time: 22:12:29
(UTC+00:00)

NOAA 16 DEB - Visible Passes

Search period start: 19 September 2024 00:00
Search period end: 29 September 2024 00:00
Orbit: 828 x 874 km, 98.8° (Epoch: 17 September)

Date Brightness Start Highest point End Pass type
(mag) Time Alt. Az. Time Alt. Az. Time Alt. Az.
19 Sep ? 17:10:53 22° ESE 17:14:04 42° ENE 17:19:19 10° N visible
19 Sep ? 18:52:54 34° SW 18:54:47 45° W 19:00:11 10° NNW visible
20 Sep ? 16:59:04 19° ESE 17:02:22 36° ENE 17:07:26 10° N visible
20 Sep ? 18:41:05 38° SSW 18:42:53 54° W 18:48:26 10° NNW visible
20 Sep ? 20:23:28 10° W 20:24:55 11° W 20:26:22 10° WNW visible
21 Sep ? 16:47:12 17° ESE 16:50:37 31° NE 16:55:28 10° N visible
21 Sep ? 18:29:12 42° SSW 18:30:59 65° WSW 18:36:37 10° NNW visible
21 Sep ? 20:11:13 12° W 20:12:49 14° W 20:15:33 10° NW visible
22 Sep ? 16:35:17 14° ESE 16:38:52 26° NE 16:43:27 10° N visible
22 Sep ? 18:17:18 45° S 18:19:04 78° WSW 18:24:44 10° NNW visible
22 Sep ? 19:59:18 15° WSW 20:00:42 17° W 20:04:13 10° NW visible
23 Sep ? 16:23:20 12° E 16:27:05 23° NE 16:31:22 10° N visible
23 Sep ? 18:05:20 46° SSE 18:07:07 88° ENE 18:12:48 10° NNW visible
23 Sep ? 19:47:20 19° WSW 19:48:34 20° W 19:52:39 10° NW visible
24 Sep ? 16:11:21 10° E 16:15:16 20° NE 16:19:13 10° N visible
24 Sep ? 17:53:21 44° SE 17:55:09 75° ENE 18:00:48 10° NNW visible
24 Sep ? 19:35:21 23° WSW 19:36:25 24° W 19:40:57 10° NW visible
25 Sep ? 15:59:55 10° E 16:03:26 17° NE 16:06:59 10° N visible
25 Sep ? 17:41:18 41° SE 17:43:09 63° ENE 17:48:43 10° NNW visible
25 Sep ? 19:23:18 27° WSW 19:24:15 29° W 19:29:07 10° NNW visible
26 Sep ? 15:48:31 10° ENE 15:51:35 15° NE 15:54:39 10° N visible
26 Sep ? 17:29:14 37° ESE 17:31:08 53° ENE 17:36:37 10° N visible
26 Sep ? 19:11:13 33° WSW 19:12:04 35° W 19:17:12 10° NNW visible
27 Sep ? 17:17:06 32° ESE 17:19:06 45° ENE 17:24:27 10° N visible
27 Sep ? 18:59:05 40° WSW 18:59:52 42° W 19:05:12 10° NNW visible
28 Sep ? 17:04:57 28° ESE 17:07:03 38° ENE 17:12:12 10° N visible
28 Sep ? 18:46:56 48° SW 18:47:38 50° W 18:53:07 10° NNW visible
